#timestamp,LO_Frequency,Hit,StdDev 
1459368015.4,286046999.4,N
1459368035.2,286046997.3,N
1459368055.1,286046998.3,N
1459368056.0,286046998.3,N
1459368075.8,286047002.5,N
1459368095.6,286047000.8,N
1459368115.5,286046999.5,N
1459368135.3,286046998.6,N
1459368155.1,286046996.5,N
1459368175.9,286046997.8,N
1459368195.7,286046995.2,N
1459368215.5,286046993.4,N
1459368235.4,286046994.2,N
1459368255.2,286046993.6,N
1459368275.0,286046993.9,N
1459368275.9,286046993.9,N
1459368295.8,286046993.8,N
1459368315.6,286046994.5,N
1459368335.4,286046992.5,N
1459368355.2,286046996.0,N
1459368375.1,286046998.0,N
1459368376.0,286046998.0,N
1459368395.8,286046996.2,N
1459368415.6,286046993.6,N
1459368435.5,286046993.7,N
1459368455.3,286046996.1,N
1459368475.1,286046995.4,N
1459368495.9,286046995.0,N
1459368515.7,286046997.3,N
1459368535.5,286046997.2,N
1459368555.4,286046998.2,N
1459368575.2,286047001.6,N
1459368595.0,286047002.1,N
1459368595.9,286047002.1,N
1459368615.8,286047000.2,N
1459368635.6,286047001.8,N
1459368655.4,286047007.4,N
1459368675.3,286047006.1,N
1459368695.1,286047009.8,N
1459368696.0,286047009.8,N
1459368715.8,286047008.1,N
1459368735.6,286047010.0,N
1459368755.5,286047008.7,N
1459368775.3,286047008.6,N
1459368795.1,286047004.5,N
1459368815.9,286047004.5,N
1459368835.7,286047004.7,N
1459368855.5,286047008.9,N
1459368875.4,286047009.9,N
1459368895.2,286047009.6,N
1459368915.0,286047011.3,N
1459368915.9,286047011.3,N
1459368935.8,286047012.0,N
1459368955.6,286047012.4,N
1459368975.4,286047013.3,N
1459368995.3,286047012.5,N
1459369015.1,286047014.2,N
1459369016.0,286047014.2,N
1459369035.8,286047014.7,N
1459369055.7,286047015.3,Y
1459369075.5,286047009.9,P
1459369095.3,286047013.5,P
1459369115.2,286047016.8,P
1459369135.9,286047014.9,Y
1459369155.7,286047006.7,P
1459369175.6,286047008.4,P
1459369195.4,286047007.5,P
1459369215.2,286047003.7,N
1459369235.1,286047005.7,N
1459369236.0,286047005.7,N
1459369255.8,286047004.3,N
1459369275.6,286047003.6,N
1459369295.5,286047006.3,N
1459369315.3,286047007.8,Y
1459369335.1,286047000.2,P
1459369355.9,286047002.6,N
1459369375.7,286047002.0,N
1459369395.5,286047002.4,N
1459369415.3,286046998.4,N
1459369435.2,286047000.1,N
1459369455.0,286046999.7,N
1459369455.9,286046999.7,N
1459369475.7,286047003.7,N
1459369495.6,286047001.5,N
1459369515.4,286047001.3,N
1459369535.2,286047005.7,N
1459369555.1,286047001.6,N
1459369556.0,286047001.6,N
1459369575.8,286047000.5,N
1459369595.6,286046998.9,N
1459369615.5,286047002.1,N
1459369635.3,286047001.9,N
1459369655.1,286047000.7,N
1459369675.9,286047000.4,N
1459369695.7,286047000.2,N
1459369715.5,286046999.9,N
1459369735.3,286047000.7,N
1459369755.2,286047004.3,N
1459369775.0,286047002.7,N
1459369775.9,286047002.7,N
1459369795.7,286047004.0,N
1459369815.6,286046998.6,N
1459369835.4,286046999.6,N
1459369855.2,286046999.6,N
1459369875.1,286046997.2,N
1459369876.0,286046997.2,N
1459369895.8,286046995.3,N
1459369915.6,286046996.9,N
1459369935.5,286046996.5,N
1459369955.3,286046997.1,N
1459369975.1,286046997.7,N
1459369995.9,286046995.4,N
1459370015.7,286046996.3,N
1459370035.5,286046994.2,N
1459370055.4,286046997.6,N
1459370075.2,286046995.5,N
1459370095.0,286046999.6,N
1459370095.9,286046999.6,N
1459370115.7,286046999.5,N
1459370135.6,286046995.1,N
1459370155.4,286046993.8,N
1459370175.2,286046993.5,N
1459370195.1,286046994.7,N
1459370196.0,286046994.7,N
1459370215.8,286046991.3,N
1459370235.6,286046988.5,Y
1459370255.5,286046989.2,P
1459370275.3,286046991.0,N
1459370295.1,286046989.1,N
1459370315.9,286046989.2,Y
1459370335.7,286046996.6,P
1459370355.5,286046997.2,N
1459370375.4,286046995.2,N
1459370395.2,286046990.2,Y
1459370415.0,286046995.6,P
1459370415.9,286046995.6,P
1459370435.8,286046995.6,P
1459370455.6,286046997.5,Y
1459370475.4,286047002.3,P
1459370495.3,286047000.6,N
1459370515.1,286046997.8,N
1459370535.8,286046997.7,N
1459370555.7,286046997.8,N
1459370575.5,286046995.5,N
1459370595.3,286046996.9,N
1459370615.2,286046995.7,N
1459370635.9,286046995.1,N
1459370655.7,286046997.1,N
1459370675.6,286046996.8,N
1459370695.4,286046995.9,N
1459370715.2,286046996.2,N
1459370735.0,286046994.7,N
1459370736.0,286046994.7,N
1459370755.8,286046992.4,Y
1459370775.6,286047000.6,P
1459370795.5,286046999.3,N
1459370815.3,286046995.1,P
1459370835.1,286046996.4,N
1459370855.8,286046994.9,N
1459370875.7,286046994.9,N
1459370895.5,286046996.2,N
1459370915.3,286046990.3,Y
1459370935.2,286046996.2,P
1459370955.0,286046995.7,P
1459370955.9,286046995.7,P
1459370975.8,286046995.6,Y
1459370995.6,286047002.1,P
1459371015.4,286047001.7,N
1459371035.2,286047005.2,N
1459371055.1,286047005.5,N
1459371056.0,286047005.5,N
1459371075.8,286047004.7,N
1459371095.6,286047006.4,N
1459371115.5,286047004.5,N
1459371135.3,286047005.5,N
1459371155.1,286047007.3,N
1459371175.9,286047006.3,N
1459371195.7,286047001.8,N
1459371215.5,286047002.4,N
1459371235.4,286047007.5,N
1459371255.2,286047007.3,N
1459371275.0,286047006.3,N
1459371275.9,286047006.3,N
1459371295.8,286047007.5,N
1459371315.6,286047005.0,N
1459371335.4,286047009.0,Y
1459371355.3,286047004.1,P
1459371375.1,286047001.3,P
1459371376.0,286047001.3,N
1459371395.8,286047002.9,N
1459371415.7,286047005.6,Y
1459371435.5,286047000.8,P
1459371455.3,286047000.8,N
1459371475.2,286047002.8,N
1459371495.9,286047002.1,N
1459371515.7,286047002.2,N
1459371535.5,286047002.3,N
1459371555.4,286047000.6,N
1459371575.2,286047002.0,N
1459371595.0,286047005.6,Y
1459371596.0,286047005.6,P
